#timestamp,LO_Frequency,Hit,StdDev 
1505142015.2,286047000.2,N,0.9
1505142035.1,286046999.7,N,0.9
1505142036.0,286047011.9,Y,0.0
1505142055.8,286047001.0,P,0.3
1505142075.7,286047000.8,N,0.3
1505142095.5,286047000.2,N,0.3
1505142115.3,286047000.2,N,0.3
1505142135.2,286046999.8,N,0.4
1505142155.0,286047002.6,Y,0.0
1505142155.9,286047002.6,P,1.1
1505142175.8,286047002.5,N,1.0
1505142195.6,286047000.6,N,1.0
1505142215.5,286047000.3,N,1.0
1505142235.3,286046999.7,N,1.1
1505142255.1,286047000.9,N,1.0
1505142275.9,286047000.5,N,1.0
1505142295.7,286047002.7,N,1.1
1505142315.6,286046999.7,N,1.1
1505142335.4,286047001.5,N,1.1
1505142355.2,286047004.0,Y,0.0
1505142375.1,286047002.7,P,0.8
1505142376.0,286047002.7,P,0.8
1505142395.8,286046999.8,N,1.2
1505142415.7,286046999.9,N,1.3
1505142435.5,286047001.0,N,1.2
1505142455.3,286047000.9,N,1.1
1505142475.2,286047000.0,N,1.1
1505142495.0,286046999.7,N,1.1
1505142495.9,286046999.7,N,1.1
1505142515.8,286047000.3,N,1.1
1505142535.6,286046998.6,N,1.2
1505142555.4,286047001.0,N,1.1
1505142575.3,286047000.6,N,1.1
1505142595.1,286047002.6,N,1.2
1505142615.9,286047002.0,N,1.2
1505142635.7,286046999.7,N,1.2
1505142655.5,286047002.3,N,1.2
1505142675.4,286047000.3,N,1.2
1505142725.2,286047000.2,E,nan
1505142735.2,286047000.8,N,0.0
1505142755.0,286047000.3,P,0.3
1505142755.9,286047000.3,N,0.2
1505142775.8,286047001.2,Y,0.0
1505142795.6,286046998.8,P,0.8
1505142815.4,286046998.9,N,0.8
1505142835.3,286046999.0,N,0.7
1505142855.1,286046999.1,N,0.6
1505142875.9,286046999.3,N,0.6
1505142925.7,286046998.5,E,nan
1505142935.6,286047001.2,N,0.0
1505142955.5,286047000.4,P,0.4
1505142975.3,286047000.4,N,0.4
1505142995.2,286047000.3,N,0.4
1505143015.9,286047000.0,N,0.4
1505143035.7,286047000.6,N,0.4
1505143055.6,286047002.7,Y,0.0
1505143075.4,286047000.3,P,0.1
1505143095.3,286047002.6,P,1.0
1505143115.1,286047002.5,N,1.1
1505143135.8,286047002.4,N,1.0
1505143155.7,286682705.5,Y,0.0
1505143175.5,286047001.0,P,0.3
1505143195.4,286047000.5,N,0.5
1505143215.2,286047000.8,N,0.4
1505143235.0,286046999.3,N,0.8
1505143235.9,286046999.3,N,0.9
1505143255.8,286046999.2,N,0.9
1505143275.6,286046999.4,N,0.9
1505143295.5,286046998.6,N,1.0
1505143315.3,286047001.0,N,1.0
1505143335.1,286047001.1,N,1.0
1505143355.9,286046999.2,N,1.0
1505143375.7,286046998.7,N,1.0
1505143395.6,286047000.9,N,1.0
1505143415.4,286047001.1,N,1.0
1505143435.2,286047001.2,N,1.0
1505143455.1,286047000.7,N,1.0
1505143456.0,286047000.7,N,1.0
1505143475.8,286047000.1,N,0.9
1505143495.7,286047000.7,N,0.9
1505143515.5,286047001.1,N,0.9
1505143535.3,286047001.0,N,0.9
1505143555.2,286047000.5,N,0.9
1505143575.0,286046999.8,N,0.9
1505143575.9,286046999.8,N,0.9
1505143595.8,286047002.6,N,1.0
1505143615.6,286047000.3,N,0.9
1505143635.4,286046999.7,N,0.9
1505143655.3,286047000.1,N,0.9
1505143675.1,286047002.2,N,1.0
1505143695.9,286047002.4,N,1.0
1505143715.7,286047001.5,N,1.0
1505143735.5,286047002.5,N,1.1
1505143755.4,286047001.8,N,1.1
1505143775.2,286047002.0,N,1.1
1505143795.1,286047001.3,N,1.1
1505143796.0,286047001.3,N,1.0
1505143815.8,286047001.8,N,1.0
1505143835.6,286047002.6,N,1.0
1505143855.5,286047001.5,N,1.0
1505143875.3,286046999.9,N,1.0
1505143895.2,286047000.2,N,1.0
1505143915.9,286047000.2,N,0.9
1505143935.7,286046999.8,N,0.9
1505143955.6,286047002.3,N,0.9
1505143975.4,286047000.3,N,0.9
1505143995.3,286047000.0,N,1.0
1505144015.1,286047000.3,N,1.0
1505144035.8,286047000.6,N,1.0
1505144055.7,286047000.2,N,1.0
1505144075.5,286047002.3,N,1.0
1505144095.4,286047002.8,N,1.0
1505144115.2,286047002.7,N,1.1
1505144135.0,286047002.8,N,1.1
1505144135.9,286047002.8,N,1.1
1505144155.8,286046999.7,N,1.1
1505144175.6,286047002.5,N,1.1
1505144195.7,286047002.2,N,1.1
1505144215.5,286047001.7,N,1.0
1505144235.4,286047001.5,N,1.0
1505144255.2,286047002.0,N,1.0
1505144275.0,286047001.7,N,1.0
1505144275.9,286047001.7,N,1.0
1505144295.8,286047001.3,N,1.0
1505144315.6,286047002.2,N,1.0
1505144335.5,286047000.2,N,1.0
1505144355.3,286047000.1,N,1.1
1505144375.1,286047002.5,N,1.1
1505144395.9,286047002.7,N,1.1
1505144415.7,286046999.9,N,1.1
1505144435.6,286047000.4,N,1.1
1505144455.4,286047002.4,N,1.1
1505144475.2,286047002.6,N,1.1
1505144495.1,286046999.8,N,1.1
1505144496.0,286046999.8,N,1.1
1505144515.8,286047002.6,N,1.1
1505144535.7,286046999.8,N,1.1
1505144555.5,286047001.6,N,1.1
1505144575.3,286047002.2,N,1.1
1505144595.2,286047001.8,N,1.1
1505144615.0,286047001.5,N,1.1
1505144615.9,286047001.5,N,1.0
1505144635.8,286047002.8,N,1.0
1505144655.6,286047004.3,Y,0.0
1505144675.4,286047002.8,P,0.6
1505144695.3,286047000.9,N,0.8
1505144715.1,286046998.8,N,1.4
1505144735.9,286046998.6,N,1.6
1505144755.7,286046998.3,N,1.7
1505144775.5,286047000.8,N,1.6
1505144825.4,286047000.9,E,nan
1505144835.3,286047000.9,N,0.0
1505144855.2,286047000.4,P,0.3
1505144875.0,286047000.5,N,0.2
1505144875.9,286047000.5,N,0.2
1505144895.8,286047000.8,Y,0.0
1505144915.6,286047000.8,P,0.1
1505144935.4,286047000.9,P,0.1
1505144955.3,286047000.4,N,0.2
1505144975.1,286047000.0,N,0.3
1505144995.9,286047002.7,Y,0.0
1505145015.7,286047000.4,P,0.1
1505145035.5,286047000.1,N,0.2
1505145055.4,286047001.1,P,0.4
1505145075.2,286047001.0,N,0.4
1505145095.0,286046998.8,Y,0.0
1505145096.0,286046998.8,P,0.9
1505145115.8,286046999.1,N,0.8
1505145135.6,286046999.3,N,0.7
1505145155.5,286046999.6,N,0.6
1505145175.3,286046999.4,N,0.6
1505145195.1,286046999.1,N,0.5
1505145215.9,286046998.9,N,0.5
1505145235.7,286046998.5,N,0.6
1505145255.6,286047000.9,N,0.7
1505145275.4,286047000.0,N,0.7
1505145295.2,286047000.2,N,0.7
1505145315.1,286047000.4,N,0.7
1505145316.0,286047000.4,N,0.7
1505145335.8,286047001.2,N,0.8
1505145355.7,286047001.2,N,0.9
1505145375.5,286046998.7,N,0.9
1505145395.3,286046998.5,N,0.9
1505145415.2,286046998.6,N,0.9
1505145435.0,286046999.2,N,0.9
1505145435.9,286046999.2,N,0.9
1505145455.8,286046999.4,N,0.9
1505145475.6,286046999.1,N,0.8
1505145495.4,286046999.3,N,0.8
1505145515.3,286046997.4,Y,0.0
1505145535.1,286046996.8,P,1.4
1505145555.9,286046997.1,N,1.2
1505145575.7,286046997.8,N,1.1
1505145595.5,286046997.3,N,1.0
